Theta_e
317 317 317 317 316 316 316 315 315 314 312 312 312 312 313 313 313 313 313 313 313 312 312 311 309 306 304 303 302 300 297 294 293 293 293 292 292 292 292 292 292 291
317 317 317 316 317 316 315 313 312 312 312 312 313 313 314 313 314 314 313 313 313 312 312 310 307 304 303 301 298 295 293 293 293 292 292 292 292 292 291 291 292 291
317 318 317 317 317 317 315 313 313 313 313 313 314 314 314 314 314 314 313 313 312 312 311 307 304 303 301 298 295 293 293 292 292 292 292 292 291 291 291 291 291 291
318 318 318 318 317 317 316 315 315 315 315 315 315 315 315 314 314 313 313 312 312 311 309 305 303 301 297 295 293 293 292 292 292 292 291 291 291 291 291 291 291 291
318 318 318 318 318 318 318 317 317 317 316 316 316 315 315 314 314 313 313 312 311 309 306 303 301 298 294 293 293 292 292 292 292 291 291 291 291 291 291 290 291 291
319 319 318 318 318 319 319 318 318 318 317 317 317 316 315 314 314 313 312 311 309 306 304 301 298 294 293 293 292 292 292 291 291 291 291 291 291 290 290 290 290 291
320 319 319 319 319 319 319 319 319 319 319 318 318 316 315 314 313 313 312 310 307 304 301 298 294 293 293 292 292 292 291 291 291 291 291 291 290 290 290 290 290 290
320 319 319 320 320 320 319 319 319 319 319 319 318 316 314 314 313 312 310 307 304 302 298 295 293 293 292 292 292 291 291 291 291 291 291 290 290 290 290 290 289 289
319 319 320 320 320 320 319 319 319 319 319 319 317 315 314 313 312 311 308 305 302 299 295 293 293 293 292 292 291 291 291 291 291 290 290 290 290 290 289 289 289 289
319 319 319 320 320 320 319 319 318 319 319 318 316 315 314 313 311 309 306 302 299 296 293 293 293 292 292 292 291 291 291 290 290 290 290 290 289 289 289 289 289 289
319 319 319 320 320 320 319 319 319 319 318 317 315 314 313 312 310 306 303 300 296 294 293 293 292 292 291 291 291 291 291 290 290 290 289 289 289 289 289 288 289 289
319 319 319 319 319 320 320 320 319 319 317 316 315 314 313 310 307 304 301 297 294 293 293 292 292 292 291 291 291 290 290 290 290 289 289 289 289 289 288 288 288 288
319 319 319 319 319 320 320 320 320 318 317 316 314 313 311 307 304 302 299 295 294 293 293 292 292 291 291 291 291 290 290 290 289 289 289 289 289 288 288 288 288 287
319 319 319 319 319 319 320 320 319 318 316 315 313 311 308 304 302 300 297 294 293 293 292 292 291 291 291 291 290 290 290 289 289 289 289 288 288 288 288 288 287 287
319 318 319 319 319 319 320 319 318 317 315 314 312 309 305 303 301 298 295 293 293 292 292 292 291 291 291 291 290 290 290 289 289 289 288 288 288 288 288 288 287 287
318 318 318 319 319 319 319 318 317 315 314 312 309 306 304 302 299 295 293 293 292 292 292 291 291 291 291 290 290 290 289 289 289 289 288 288 288 288 288 288 287 287
319 319 319 319 319 319 318 317 316 314 312 310 307 304 302 300 296 294 293 292 292 292 291 291 291 291 290 290 290 290 289 289 289 288 288 288 288 288 288 287 287 287
319 319 319 319 319 318 317 316 314 313 311 308 305 303 301 297 294 293 293 292 292 291 291 291 291 290 290 290 290 289 289 289 288 288 288 288 287 287 287 287 287 287
319 319 319 319 318 317 316 314 313 311 309 306 304 302 299 295 293 293 292 292 291 291 291 291 290 290 290 290 290 289 289 289 288 288 288 287 287 287 287 287 287 287
319 319 319 319 317 316 314 313 312 309 307 304 303 300 297 294 293 292 292 292 291 291 291 291 290 290 290 289 289 289 289 289 288 288 288 287 287 287 287 287 286 286
320 320 319 318 316 315 313 312 310 307 305 303 301 298 295 293 293 292 292 291 291 291 291 290 290 290 289 289 289 289 289 289 288 288 288 288 287 287 287 287 286 286
320 319 318 317 315 313 312 311 308 306 304 302 300 296 294 293 292 292 292 291 291 291 290 290 290 290 289 290 289 289 289 288 289 289 289 288 287 287 287 287 286 286
319 318 317 315 314 313 311 310 307 305 303 301 298 295 293 293 292 292 292 291 291 291 290 290 290 290 289 290 289 289 289 288 289 290 290 288 288 288 288 288 287 286
318 317 316 314 313 312 310 308 306 304 302 299 296 294 293 292 292 292 292 291 291 290 290 290 290 290 290 290 289 289 289 288 289 290 289 288 288 288 289 288 287 286
317 316 314 313 312 311 310 307 305 302 301 298 295 293 293 292 292 292 291 291 291 290 290 290 290 290 290 290 289 289 289 288 288 288 288 288 288 288 289 289 287 287
316 315 313 312 312 311 309 306 303 302 300 297 294 293 292 292 292 292 291 291 290 290 290 290 290 290 290 290 289 289 289 289 288 288 288 288 288 288 289 288 287 287
Wind_Speed
3 4 3 2 2 2 1 0 2 4 6 8 10 12 14 16 18 18 18 19 18 17 17 18 20 22 23 23 23 22 22 21 20 20 20 20 21 21 22 22 23 23
2 3 2 1 1 1 2 2 3 6 8 9 11 14 16 18 18 18 18 17 17 17 18 19 21 23 23 23 23 22 21 20 19 20 20 21 22 22 23 23 23 25
1 1 1 1 2 3 3 4 5 7 9 11 13 15 17 18 18 18 17 16 16 17 18 20 22 23 23 23 23 21 20 20 20 20 21 22 23 23 23 24 24 25
1 2 2 3 3 4 5 7 8 9 11 13 15 17 18 18 18 17 16 16 16 17 19 21 22 23 23 22 21 20 19 19 20 21 22 23 23 23 24 25 24 24
2 3 4 5 5 5 6 9 10 11 13 15 17 18 18 17 16 16 15 15 15 17 19 21 22 22 21 20 19 18 18 19 21 22 22 22 23 24 25 25 23 23
3 5 6 7 7 7 7 9 10 12 14 16 17 18 17 16 15 14 14 14 16 18 20 21 21 20 19 18 18 18 19 20 22 22 22 22 23 24 24 24 24 24
4 5 6 6 6 7 8 9 10 12 14 16 17 17 15 14 13 13 13 14 16 18 20 20 20 19 19 18 19 20 20 21 21 21 21 22 22 23 23 24 25 24
6 6 6 7 7 7 9 10 12 13 14 16 16 14 12 12 12 12 13 14 16 19 19 19 19 19 18 18 19 20 20 20 20 20 21 22 22 22 23 23 24 23
7 7 8 8 8 8 10 12 13 13 14 15 14 11 11 11 10 11 13 15 17 19 19 18 18 17 17 17 18 18 19 19 20 20 21 21 21 22 21 21 22 23
8 8 8 8 8 9 10 11 12 13 14 14 11 10 9 9 10 12 14 16 18 18 17 17 16 16 16 17 17 17 18 19 19 20 20 20 21 21 21 21 21 22
10 10 9 9 9 9 10 10 12 12 12 11 9 8 8 9 10 12 15 16 16 16 15 15 14 15 16 16 17 18 18 18 18 19 19 19 20 20 20 21 20 21
13 12 12 11 10 10 11 10 11 11 10 8 7 8 8 9 11 13 15 15 14 14 14 13 14 14 15 16 16 17 17 17 18 18 18 19 19 20 20 21 20 20
16 14 13 13 12 11 11 10 10 9 8 7 7 7 8 9 11 13 14 13 13 13 12 12 13 14 14 15 16 16 16 17 17 18 18 18 19 20 20 22 21 20
16 15 14 14 13 12 11 10 9 8 6 5 6 7 8 9 12 13 13 12 12 11 11 12 12 13 14 14 14 14 15 16 17 17 17 18 19 20 21 22 21 20
15 14 14 15 14 12 10 9 7 5 4 5 5 6 8 10 12 12 11 11 11 11 11 12 12 13 14 13 14 14 15 15 16 16 17 18 18 19 20 21 21 20
14 13 13 14 14 12 9 7 5 3 3 4 6 7 9 11 11 10 10 10 10 10 10 11 12 13 13 13 13 14 14 15 15 16 17 18 19 20 20 20 21 21
13 12 12 12 12 10 7 5 3 2 3 4 6 8 9 10 9 8 8 8 8 9 10 11 12 12 12 13 14 14 14 14 15 16 17 18 19 20 19 19 21 21
12 11 10 10 10 8 5 3 2 2 4 5 6 8 9 8 8 7 7 7 8 9 10 11 11 12 12 13 14 14 14 15 15 16 17 18 19 19 19 20 21 22
10 8 8 9 9 7 4 2 2 3 4 5 7 8 8 7 6 6 6 7 8 9 10 11 11 12 13 13 14 14 15 15 15 16 17 18 19 19 19 20 21 22
7 7 8 9 8 6 4 3 2 3 4 6 7 7 6 5 5 5 5 6 8 8 9 10 10 11 12 13 13 14 15 15 15 17 18 18 19 20 20 21 22 22
7 9 9 9 7 5 4 3 3 3 4 6 6 5 5 4 4 4 5 6 7 8 8 9 10 11 12 12 13 14 14 15 17 18 17 16 18 20 20 21 22 22
9 9 9 8 7 5 4 3 3 4 4 5 5 4 3 3 3 4 5 6 7 7 8 9 10 11 12 12 13 14 15 16 16 14 15 16 17 19 19 20 22 22
10 9 9 8 6 5 4 3 3 4 4 4 4 3 2 1 3 4 4 5 6 6 7 9 10 11 11 12 13 14 15 17 14 11 13 15 16 18 17 17 21 22
10 9 8 7 6 5 4 3 4 4 3 3 2 1 0 1 2 3 4 5 5 6 7 8 9 10 11 11 13 14 15 16 14 11 14 15 15 16 15 14 20 24
10 10 8 7 6 5 4 4 4 3 2 2 1 1 1 2 2 3 3 4 4 5 6 7 8 10 10 12 13 14 15 16 14 13 15 16 15 15 14 15 19 22
11 10 9 8 6 5 5 5 3 2 2 1 2 2 2 2 2 2 2 3 4 5 6 7 8 9 10 12 13 14 14 15 14 14 15 16 16 15 14 15 18 18
Wind_Direction
107 103 102 119 120 122 153 223 311 318 328 330 334 334 329 329 336 342 345 346 346 348 348 348 350 352 354 354 355 355 354 355 358 0 3 5 5 5 6 6 5 7
104 112 122 147 176 225 249 276 291 307 320 323 324 323 323 328 335 340 343 343 344 346 345 347 350 353 354 354 355 357 359 1 3 4 7 8 9 8 6 6 5 5
45 53 28 291 260 268 287 297 293 301 312 314 314 317 321 326 333 339 341 341 342 342 343 347 351 353 354 355 358 0 2 4 6 9 11 10 10 9 7 7 6 5
352 343 329 299 285 290 301 303 301 304 307 307 309 313 318 324 331 338 340 340 339 340 344 349 351 352 355 358 1 2 5 8 10 12 13 11 10 9 8 8 7 4
319 305 293 288 292 298 299 300 302 303 303 303 307 311 316 323 331 337 338 337 337 341 346 350 352 354 358 1 4 6 9 11 14 15 15 11 10 9 9 8 6 4
303 297 290 289 290 288 291 296 300 300 300 302 305 309 314 322 331 336 335 334 338 345 349 351 354 358 3 5 7 11 14 16 16 16 14 12 11 9 7 6 6 5
286 290 291 288 281 278 284 292 296 298 302 305 305 307 313 323 332 334 333 335 342 348 351 353 358 3 6 8 10 12 14 16 16 15 13 12 11 9 7 6 7 6
274 285 285 278 272 275 279 282 287 295 302 306 305 308 319 327 331 332 334 340 347 351 353 357 3 6 8 10 12 13 13 14 14 14 13 12 11 9 8 6 6 7
266 278 278 272 271 277 282 282 285 293 300 302 305 315 325 328 330 333 338 345 350 353 357 2 5 6 10 13 13 13 13 13 13 14 13 13 12 10 8 7 7 7
258 269 270 267 272 279 282 285 287 292 299 302 309 322 326 327 331 336 344 350 353 355 360 4 5 7 12 13 12 14 15 14 14 14 13 13 11 9 8 8 9 8
257 265 265 262 273 281 279 282 289 295 301 307 317 325 326 328 333 341 350 353 354 357 1 4 7 11 14 12 13 15 15 14 14 14 14 12 10 9 9 10 11 8
260 266 267 264 270 278 278 284 295 300 304 313 322 325 325 328 335 347 352 352 354 359 2 5 10 14 15 14 15 15 13 13 13 14 14 12 10 10 10 12 13 9
264 268 270 265 263 270 277 286 296 301 306 318 325 324 322 328 341 350 351 351 356 2 5 9 13 15 14 15 15 13 12 13 14 14 13 10 11 11 12 14 13 9
266 268 268 262 256 260 270 283 291 299 311 323 322 318 321 336 348 350 350 355 1 6 8 11 14 15 14 15 13 11 13 15 14 14 12 11 11 11 13 13 10 8
267 265 261 253 247 250 263 278 288 301 318 319 314 315 331 346 350 349 353 1 6 9 11 12 14 13 12 12 11 11 15 15 13 13 12 12 13 12 12 10 8 7
264 259 251 243 240 245 257 272 286 306 314 306 309 324 342 349 349 353 1 7 10 11 12 13 12 12 10 8 9 12 13 14 12 12 12 13 13 13 11 7 7 7
257 251 241 236 236 239 248 265 279 297 300 301 317 335 346 349 351 1 8 10 13 13 13 14 11 9 8 7 9 10 9 12 12 11 13 14 13 12 10 6 6 7
248 242 233 229 230 230 235 251 263 280 293 307 329 341 347 351 357 7 12 13 17 15 14 13 8 6 7 6 7 7 6 10 13 12 13 14 13 11 8 6 7 7
235 226 220 219 219 219 220 225 245 273 295 319 337 344 349 356 3 12 16 18 18 17 14 10 5 5 6 4 3 4 5 8 11 13 14 14 12 10 8 8 8 6
215 208 210 211 208 206 202 205 244 279 306 329 340 346 352 1 8 17 23 23 20 17 11 6 4 5 4 0 0 4 5 4 9 15 15 12 10 8 8 9 8 3
200 200 202 203 199 193 193 212 255 290 317 332 341 349 355 1 15 26 28 24 19 14 8 5 5 4 1 358 1 5 2 3 13 17 12 7 6 6 8 8 6 2
195 196 195 196 193 186 197 227 267 300 320 332 343 352 354 5 29 34 31 24 16 10 6 5 4 2 360 358 3 6 5 10 19 14 2 2 3 4 7 4 1 0
191 193 193 191 186 187 211 245 278 301 316 334 346 347 348 30 47 40 31 21 12 9 7 4 1 360 357 358 5 8 9 17 23 6 355 0 360 1 5 359 354 357
189 191 191 187 186 197 227 260 280 292 312 336 338 319 310 77 64 47 31 16 9 11 9 1 358 357 355 0 10 12 11 19 22 4 356 2 360 359 2 354 349 354
191 191 188 186 194 213 242 264 272 280 309 323 291 201 154 107 81 52 27 11 8 12 9 0 355 355 358 4 12 13 12 17 18 7 1 4 5 2 359 352 351 351
195 193 190 192 207 229 249 257 258 265 289 274 208 178 154 129 103 64 24 9 9 9 6 360 355 356 2 8 13 13 13 14 14 9 6 7 8 7 357 349 353 352